User: anonymous   Login
Location: Unspecified
(0.0000°N, 0.0000°E)
Time: 03:20:11
(UTC+00:00)
Language:

STARLINK-34869 - Orbit

View from above orbital plane
View from above orbital plane
View from above satellite
View from above satellite

Ground track
Ground track

The orbit is defined by the following mean orbital elements,

1 65371U          26145.35689242 +.00000000 +00000-0 +28681-3 0 00000
2 65371  53.1577 172.0401 0000942  86.5805 273.5303 15.30201939    00
Epoch (UTC): 25 May 2026 08:33:55
Eccentricity: 0.0000942
inclination: 53.1577°
perigee height: 475 km
apogee height: 476 km
right ascension of ascending node: 172.0401°
argument of perigee: 86.5805°
revolutions per day: 15.30201939
mean anomaly at epoch: 273.5303°

The dashed part of the orbit path shows where the satellite is in the earth's shadow,  

DLR